Terminal Aerodrome Forecast
Issued by NWS

Home | Current Version | Previous Version | Text Only | Print | Product List | Glossary On
Versions: 1 2 3 4 5 6 7 8 9 10 11 12
000
FTUS42 TJSJ 061730
TAFKPK
TAF
TKPK 061730Z 0618/0718 06015KT P6SM FEW022
     FM062300 05012KT P6SM FEW020
     FM071300 07015KT P6SM FEW020=

USA.gov is the U.S. government's official web portal to all federal, state and local government web resources and services.